| time (UTC) | temp F | wind direction | speed knots | gust knots | rain 1hr in | rain 24hr in | rain mn in | humidity % | barometer mb |
| 20260509212805 | 70 | 1 | 0.0 | 0.0 | 0.00 | 0.00 | 0.00 | 80 | 1018.4 |
| 20260509211804 | 70 | 2 | 0.0 | 0.0 | 0.00 | 0.00 | 0.00 | 80 | 1018.2 |
| 20260509211306 | 70 | 1 | 0.0 | 0.0 | 0.00 | 0.00 | 0.00 | 80 | 1018.2 |
| 20260509210804 | 70 | 7 | 0.9 | 4.3 | 0.00 | 0.00 | 0.00 | 80 | 1018.0 |
| 20260509210305 | 70 | 164 | 4.3 | 4.3 | 0.00 | 0.00 | 0.00 | 80 | 1018.0 |
| 20260509205307 | 70 | 151 | 4.3 | 7.8 | 0.00 | 0.00 | 0.00 | 80 | 1017.8 |
| 20260509204804 | 70 | 2 | 0.0 | 0.0 | 0.00 | 0.00 | 0.00 | 81 | 1017.8 |
| 20260509203305 | 70 | 2 | 0.0 | 0.0 | 0.00 | 0.00 | 0.00 | 81 | 1017.7 |
| 20260509202307 | 70 | 151 | 4.3 | 4.3 | 0.00 | 0.00 | 0.00 | 81 | 1017.6 |
| 20260509201804 | 70 | 150 | 3.5 | 4.3 | 0.00 | 0.00 | 0.00 | 81 | 1017.4 |
| 20260509200805 | 70 | 2 | 0.0 | 0.0 | 0.00 | 0.00 | 0.00 | 81 | 1017.2 |
| 20260509200304 | 70 | 1 | 0.0 | 0.0 | 0.00 | 0.00 | 0.00 | 81 | 1017.0 |
| 20260509195805 | 70 | 93 | 6.1 | 6.1 | 0.00 | 0.00 | 0.00 | 81 | 1017.0 |
| 20260509195307 | 70 | 116 | 6.1 | 6.1 | 0.00 | 0.00 | 0.00 | 81 | 1016.8 |
| 20260509194804 | 70 | 125 | 5.2 | 8.7 | 0.00 | 0.00 | 0.00 | 81 | 1016.8 |
| 20260509194305 | 70 | 139 | 5.2 | 10.4 | 0.00 | 0.00 | 0.00 | 81 | 1016.7 |
| 20260509193804 | 70 | 142 | 3.5 | 10.4 | 0.00 | 0.00 | 0.00 | 81 | 1016.7 |
| 20260509193304 | 70 | 127 | 5.2 | 10.4 | 0.00 | 0.00 | 0.00 | 80 | 1016.7 |
| 20260509192306 | 70 | 142 | 5.2 | 10.4 | 0.00 | 0.00 | 0.00 | 80 | 1016.6 |
| 20260509191305 | 70 | 140 | 2.6 | 7.8 | 0.00 | 0.00 | 0.00 | 80 | 1016.5 |
| 20260509190804 | 70 | 115 | 4.3 | 7.8 | 0.00 | 0.00 | 0.00 | 80 | 1016.6 |
| 20260509190305 | 70 | 122 | 4.3 | 7.8 | 0.00 | 0.00 | 0.00 | 80 | 1016.6 |
| 20260509185804 | 70 | 137 | 5.2 | 10.4 | 0.00 | 0.00 | 0.00 | 80 | 1016.5 |
| 20260509184805 | 70 | 145 | 4.3 | 7.8 | 0.00 | 0.00 | 0.00 | 80 | 1016.4 |
| 20260509183804 | 70 | 120 | 3.5 | 7.0 | 0.00 | 0.00 | 0.00 | 80 | 1016.4 |
| 20260509183304 | 70 | 137 | 3.5 | 10.4 | 0.00 | 0.00 | 0.00 | 80 | 1016.5 |
| 20260509182804 | 70 | 124 | 5.2 | 10.4 | 0.00 | 0.00 | 0.00 | 79 | 1016.4 |
| 20260509182306 | 70 | 129 | 4.3 | 10.4 | 0.00 | 0.00 | 0.00 | 79 | 1016.3 |
| 20260509181805 | 70 | 125 | 4.3 | 7.8 | 0.00 | 0.00 | 0.00 | 79 | 1016.3 |
| 20260509181304 | 70 | 123 | 3.5 | 8.7 | 0.00 | 0.00 | 0.00 | 79 | 1016.2 |
| 20260509180804 | 70 | 126 | 4.3 | 10.4 | 0.00 | 0.00 | 0.00 | 79 | 1016.3 |
| 20260509175806 | 70 | 144 | 2.6 | 10.4 | 0.00 | 0.00 | 0.00 | 78 | 1016.4 |
| 20260509175306 | 70 | 3 | 0.0 | 0.0 | 0.00 | 0.00 | 0.00 | 81 | 1016.4 |
| 20260509174805 | 70 | 3 | 0.0 | 0.0 | 0.00 | 0.00 | 0.00 | 81 | 1016.5 |
| 20260509174304 | 70 | 3 | 0.0 | 0.0 | 0.00 | 0.00 | 0.00 | 81 | 1016.5 |
| 20260509173304 | 70 | 3 | 0.0 | 0.0 | 0.00 | 0.00 | 0.00 | 81 | 1016.6 |
| 20260509172306 | 70 | 3 | 0.0 | 0.0 | 0.00 | 0.00 | 0.00 | 81 | 1016.5 |
| 20260509171805 | 70 | 2 | 0.0 | 0.0 | 0.00 | 0.00 | 0.00 | 81 | 1016.5 |
| 20260509171305 | 70 | 3 | 0.0 | 0.0 | 0.00 | 0.00 | 0.00 | 81 | 1016.6 |
| 20260509170304 | 70 | 3 | 0.0 | 0.0 | 0.00 | 0.00 | 0.00 | 81 | 1016.6 |
| 20260509165804 | 70 | 3 | 0.0 | 0.0 | 0.00 | 0.00 | 0.00 | 81 | 1016.5 |
| 20260509165307 | 70 | 3 | 0.0 | 0.0 | 0.00 | 0.00 | 0.00 | 81 | 1016.6 |
| 20260509164804 | 70 | 3 | 0.0 | 0.0 | 0.00 | 0.00 | 0.00 | 81 | 1016.6 |
| 20260509164304 | 70 | 3 | 0.0 | 0.0 | 0.00 | 0.00 | 0.00 | 81 | 1016.5 |
| 20260509162804 | 70 | 146 | 10.4 | 10.4 | 0.00 | 0.00 | 0.00 | 81 | 1016.7 |
| 20260509162307 | 70 | 146 | 10.4 | 12.2 | 0.00 | 0.00 | 0.00 | 81 | 1016.7 |
| 20260509161805 | 70 | 123 | 7.8 | 12.2 | 0.00 | 0.00 | 0.00 | 81 | 1016.7 |
| 20260509161305 | 69 | 125 | 4.3 | 11.3 | 0.00 | 0.00 | 0.00 | 81 | 1016.8 |
| 20260509160804 | 68 | 7 | 0.0 | 2.6 | 0.00 | 0.00 | 0.00 | 82 | 1016.8 |
| 20260509160304 | 68 | 3 | 0.0 | 0.0 | 0.00 | 0.00 | 0.00 | 82 | 1017.0 |
| 20260509155805 | 68 | 3 | 0.0 | 0.0 | 0.00 | 0.00 | 0.00 | 82 | 1017.0 |
| 20260509152306 | 68 | 3 | 0.0 | 0.0 | 0.00 | 0.00 | 0.00 | 82 | 1017.4 |
| 20260509151804 | 68 | 3 | 0.0 | 0.0 | 0.00 | 0.00 | 0.00 | 82 | 1017.4 |
| 20260509151304 | 68 | 3 | 0.0 | 0.0 | 0.00 | 0.00 | 0.00 | 82 | 1017.5 |
| 20260509150805 | 68 | 3 | 0.0 | 0.0 | 0.00 | 0.00 | 0.00 | 82 | 1017.5 |
| 20260509145804 | 68 | 3 | 0.0 | 0.0 | 0.00 | 0.00 | 0.00 | 82 | 1017.6 |
| 20260509145306 | 68 | 3 | 0.0 | 0.0 | 0.00 | 0.00 | 0.00 | 82 | 1017.5 |
| 20260509144804 | 68 | 3 | 0.0 | 0.0 | 0.00 | 0.00 | 0.00 | 82 | 1017.6 |
| 20260509144304 | 68 | 2 | 0.0 | 0.0 | 0.00 | 0.00 | 0.00 | 82 | 1017.7 |
| 20260509143805 | 68 | 3 | 0.0 | 0.0 | 0.00 | 0.00 | 0.00 | 82 | 1017.7 |
| 20260509143305 | 68 | 3 | 0.0 | 0.0 | 0.00 | 0.00 | 0.00 | 82 | 1017.8 |
| 20260509142805 | 68 | 3 | 0.0 | 0.0 | 0.00 | 0.00 | 0.00 | 82 | 1017.8 |
| 20260509142307 | 68 | 3 | 0.0 | 0.0 | 0.00 | 0.00 | 0.00 | 82 | 1017.8 |
| 20260509141805 | 68 | 3 | 0.0 | 0.0 | 0.00 | 0.00 | 0.00 | 82 | 1017.9 |
| 20260509141304 | 68 | 3 | 0.0 | 0.0 | 0.00 | 0.00 | 0.00 | 82 | 1017.9 |
| 20260509140805 | 68 | 3 | 0.0 | 0.0 | 0.00 | 0.00 | 0.00 | 82 | 1017.9 |
| 20260509140305 | 68 | 3 | 0.0 | 0.0 | 0.00 | 0.00 | 0.00 | 82 | 1018.0 |
| 20260509135804 | 68 | 3 | 0.0 | 0.0 | 0.00 | 0.00 | 0.00 | 82 | 1018.0 |
| 20260509135306 | 68 | 3 | 0.0 | 0.0 | 0.00 | 0.00 | 0.00 | 82 | 1017.9 |
| 20260509134304 | 68 | 3 | 0.0 | 0.0 | 0.00 | 0.00 | 0.00 | 82 | 1017.8 |
| 20260509133804 | 68 | 6 | 0.9 | 4.3 | 0.00 | 0.00 | 0.00 | 82 | 1017.9 |
| 20260509132806 | 68 | 128 | 4.3 | 7.8 | 0.00 | 0.00 | 0.00 | 82 | 1017.9 |
| 20260509132306 | 68 | 107 | 2.6 | 7.0 | 0.00 | 0.00 | 0.00 | 82 | 1017.9 |
| 20260509131305 | 68 | 108 | 2.6 | 2.6 | 0.00 | 0.00 | 0.00 | 82 | 1017.9 |
| 20260509130805 | 68 | 108 | 2.6 | 6.1 | 0.00 | 0.00 | 0.00 | 82 | 1018.0 |
| 20260509130304 | 68 | 132 | 1.7 | 2.6 | 0.00 | 0.00 | 0.00 | 82 | 1017.9 |
| 20260509124805 | 68 | 151 | 4.3 | 8.7 | 0.00 | 0.00 | 0.00 | 82 | 1018.0 |
| 20260509124304 | 68 | 139 | 4.3 | 10.4 | 0.00 | 0.00 | 0.00 | 82 | 1018.0 |
| 20260509123805 | 68 | 137 | 5.2 | 10.4 | 0.00 | 0.00 | 0.00 | 82 | 1018.2 |
| 20260509123305 | 68 | 149 | 5.2 | 8.7 | 0.00 | 0.00 | 0.00 | 82 | 1018.3 |
| 20260509122806 | 67 | 133 | 4.3 | 12.2 | 0.00 | 0.00 | 0.00 | 82 | 1018.3 |
| 20260509121805 | 67 | 136 | 0.9 | 7.8 | 0.00 | 0.00 | 0.00 | 82 | 1018.5 |
| 20260509121304 | 67 | 3 | 0.0 | 0.0 | 0.00 | 0.00 | 0.00 | 82 | 1018.5 |
| 20260509120304 | 67 | 3 | 0.0 | 0.0 | 0.00 | 0.00 | 0.00 | 82 | 1018.6 |
| 20260509115805 | 67 | 1 | 0.0 | 0.0 | 0.00 | 0.00 | 0.00 | 82 | 1018.5 |
| 20260509115307 | 67 | 3 | 0.0 | 0.0 | 0.00 | 0.00 | 0.00 | 82 | 1018.5 |
| 20260509114804 | 67 | 1 | 0.0 | 7.0 | 0.00 | 0.00 | 0.00 | 82 | 1018.7 |
| 20260509112805 | 67 | 167 | 4.3 | 10.4 | 0.00 | 0.00 | 0.00 | 81 | 1018.6 |
| 20260509112307 | 67 | 165 | 5.2 | 10.4 | 0.00 | 0.00 | 0.00 | 81 | 1018.5 |
| 20260509111805 | 67 | 166 | 6.1 | 12.2 | 0.00 | 0.00 | 0.00 | 81 | 1018.6 |
| 20260509111304 | 67 | 151 | 5.2 | 11.3 | 0.00 | 0.00 | 0.00 | 81 | 1018.6 |
| 20260509110804 | 67 | 166 | 5.2 | 10.4 | 0.00 | 0.00 | 0.00 | 81 | 1018.6 |
| 20260509110304 | 67 | 158 | 6.1 | 13.0 | 0.00 | 0.00 | 0.00 | 81 | 1018.9 |
| 20260509105306 | 67 | 160 | 7.8 | 13.0 | 0.00 | 0.00 | 0.00 | 81 | 1018.9 |
| 20260509104805 | 67 | 161 | 4.3 | 10.4 | 0.00 | 0.00 | 0.00 | 81 | 1018.8 |
| 20260509104305 | 67 | 184 | 7.8 | 10.4 | 0.00 | 0.00 | 0.00 | 81 | 1018.9 |
| 20260509103804 | 67 | 172 | 7.8 | 10.4 | 0.00 | 0.00 | 0.00 | 80 | 1018.9 |
| 20260509103304 | 67 | 160 | 7.8 | 11.3 | 0.00 | 0.00 | 0.00 | 80 | 1018.9 |
| 20260509102805 | 67 | 169 | 7.0 | 13.9 | 0.00 | 0.00 | 0.00 | 80 | 1018.7 |
| 20260509102306 | 67 | 151 | 7.8 | 12.2 | 0.00 | 0.00 | 0.00 | 80 | 1018.7 |
| 20260509101804 | 67 | 157 | 6.1 | 13.0 | 0.00 | 0.00 | 0.00 | 80 | 1018.7 |
| 20260509101305 | 67 | 150 | 7.8 | 11.3 | 0.00 | 0.00 | 0.00 | 80 | 1018.5 |
| 20260509100804 | 67 | 162 | 9.6 | 13.0 | 0.00 | 0.00 | 0.00 | 80 | 1018.5 |
| 20260509100305 | 67 | 148 | 5.2 | 8.7 | 0.00 | 0.00 | 0.00 | 80 | 1018.5 |
| 20260509095805 | 67 | 150 | 5.2 | 8.7 | 0.00 | 0.00 | 0.00 | 79 | 1018.5 |
| 20260509095306 | 67 | 149 | 4.3 | 8.7 | 0.00 | 0.00 | 0.00 | 79 | 1018.5 |
| 20260509094805 | 67 | 158 | 6.1 | 10.4 | 0.00 | 0.00 | 0.00 | 79 | 1018.4 |
| 20260509094304 | 67 | 147 | 6.1 | 10.4 | 0.00 | 0.00 | 0.00 | 79 | 1018.4 |
| 20260509093804 | 68 | 146 | 6.1 | 10.4 | 0.00 | 0.00 | 0.00 | 79 | 1018.2 |
| 20260509093304 | 68 | 119 | 7.0 | 11.3 | 0.00 | 0.00 | 0.00 | 79 | 1018.1 |
| 20260509092804 | 68 | 142 | 4.3 | 10.4 | 0.00 | 0.00 | 0.00 | 78 | 1018.1 |
| 20260509092306 | 68 | 154 | 5.2 | 10.4 | 0.00 | 0.00 | 0.00 | 78 | 1018.0 |
| 20260509091805 | 68 | 132 | 6.1 | 11.3 | 0.00 | 0.00 | 0.00 | 78 | 1018.0 |
| 20260509091305 | 68 | 160 | 6.1 | 18.2 | 0.00 | 0.00 | 0.00 | 78 | 1017.9 |
| 20260509090804 | 68 | 160 | 5.2 | 10.4 | 0.00 | 0.00 | 0.00 | 78 | 1017.9 |
| 20260509090304 | 68 | 138 | 5.2 | 12.2 | 0.00 | 0.00 | 0.00 | 78 | 1017.9 |
| 20260509085804 | 68 | 151 | 8.7 | 13.9 | 0.00 | 0.00 | 0.00 | 78 | 1017.8 |
| 20260509085306 | 68 | 150 | 5.2 | 12.2 | 0.00 | 0.00 | 0.00 | 78 | 1017.7 |
| 20260509084804 | 68 | 137 | 6.1 | 10.4 | 0.00 | 0.00 | 0.00 | 78 | 1017.7 |
| 20260509083305 | 69 | 126 | 7.8 | 13.9 | 0.00 | 0.00 | 0.00 | 77 | 1017.7 |
| 20260509082307 | 69 | 133 | 6.1 | 10.4 | 0.00 | 0.00 | 0.00 | 77 | 1017.7 |
| 20260509081805 | 69 | 152 | 5.2 | 8.7 | 0.00 | 0.00 | 0.00 | 76 | 1017.7 |
| 20260509081304 | 69 | 107 | 5.2 | 7.8 | 0.00 | 0.00 | 0.00 | 76 | 1017.7 |
| 20260509080804 | 69 | 127 | 6.1 | 10.4 | 0.00 | 0.00 | 0.00 | 76 | 1017.6 |
| 20260509080305 | 70 | 153 | 5.2 | 12.2 | 0.00 | 0.00 | 0.00 | 76 | 1017.7 |
| 20260509075805 | 70 | 146 | 5.2 | 10.4 | 0.00 | 0.00 | 0.00 | 75 | 1017.6 |
| 20260509074304 | 70 | 131 | 7.8 | 13.0 | 0.00 | 0.00 | 0.00 | 74 | 1017.4 |
| 20260509073805 | 71 | 142 | 8.7 | 12.2 | 0.00 | 0.00 | 0.00 | 74 | 1017.4 |
| 20260509073305 | 71 | 143 | 6.1 | 10.4 | 0.00 | 0.00 | 0.00 | 74 | 1017.3 |
| 20260509072804 | 71 | 161 | 10.4 | 10.4 | 0.00 | 0.00 | 0.00 | 73 | 1017.3 |
| 20260509072306 | 71 | 161 | 7.8 | 13.0 | 0.00 | 0.00 | 0.00 | 73 | 1017.2 |
| 20260509071804 | 71 | 113 | 7.0 | 13.0 | 0.00 | 0.00 | 0.00 | 73 | 1017.2 |
| 20260509071304 | 72 | 159 | 7.0 | 13.0 | 0.00 | 0.00 | 0.00 | 73 | 1017.1 |
| 20260509070805 | 72 | 152 | 5.2 | 10.4 | 0.00 | 0.00 | 0.00 | 73 | 1017.1 |
| 20260509070304 | 72 | 148 | 7.8 | 11.3 | 0.00 | 0.00 | 0.00 | 73 | 1017.0 |
| 20260509065306 | 73 | 149 | 7.8 | 14.8 | 0.00 | 0.00 | 0.00 | 72 | 1016.8 |
| 20260509064806 | 74 | 131 | 2.6 | 2.6 | 0.00 | 0.00 | 0.00 | 71 | 1016.7 |
| 20260509064304 | 74 | 131 | 3.5 | 8.7 | 0.00 | 0.00 | 0.00 | 71 | 1016.6 |
| 20260509063805 | 74 | 166 | 8.7 | 12.2 | 0.00 | 0.00 | 0.00 | 71 | 1016.6 |
| 20260509063304 | 78 | 3 | 0.0 | 0.0 | 0.00 | 0.00 | 0.00 | 66 | 1016.5 |
| 20260509062804 | 78 | 3 | 0.0 | 0.0 | 0.00 | 0.00 | 0.00 | 66 | 1016.3 |
| 20260509062306 | 78 | 3 | 0.0 | 0.0 | 0.00 | 0.00 | 0.00 | 66 | 1016.2 |
| 20260509061804 | 78 | 3 | 0.0 | 0.0 | 0.00 | 0.00 | 0.00 | 66 | 1016.1 |
| 20260509061304 | 78 | 3 | 0.0 | 0.0 | 0.00 | 0.00 | 0.00 | 66 | 1016.1 |
| 20260509060805 | 78 | 3 | 0.0 | 0.0 | 0.00 | 0.00 | 0.00 | 66 | 1016.0 |
| 20260509060304 | 78 | 3 | 0.0 | 0.0 | 0.00 | 0.00 | 0.00 | 66 | 1016.0 |
| 20260509055804 | 78 | 3 | 0.0 | 0.0 | 0.00 | 0.00 | 0.00 | 66 | 1016.0 |
| 20260509055307 | 78 | 3 | 0.0 | 0.0 | 0.00 | 0.00 | 0.00 | 66 | 1015.9 |
| 20260509054304 | 78 | 3 | 0.0 | 0.0 | 0.00 | 0.00 | 0.00 | 66 | 1015.8 |
| 20260509053805 | 78 | 3 | 0.0 | 0.0 | 0.00 | 0.00 | 0.00 | 66 | 1015.8 |
| 20260509053304 | 78 | 3 | 0.0 | 7.0 | 0.00 | 0.00 | 0.00 | 66 | 1015.7 |
| 20260509052805 | 78 | 160 | 7.0 | 7.0 | 0.00 | 0.00 | 0.00 | 66 | 1015.4 |
| 20260509052307 | 78 | 160 | 7.0 | 10.4 | 0.00 | 0.00 | 0.00 | 66 | 1015.5 |
| 20260509051305 | 79 | 143 | 6.1 | 13.0 | 0.00 | 0.00 | 0.00 | 66 | 1015.6 |
| 20260509050805 | 78 | 131 | 6.1 | 13.0 | 0.00 | 0.00 | 0.00 | 66 | 1015.5 |
| 20260509050304 | 78 | 133 | 7.8 | 11.3 | 0.00 | 0.00 | 0.00 | 67 | 1015.5 |
| 20260509045805 | 78 | 158 | 7.8 | 14.8 | 0.00 | 0.00 | 0.00 | 67 | 1015.6 |
| 20260509045306 | 78 | 107 | 6.1 | 12.2 | 0.00 | 0.00 | 0.00 | 67 | 1015.5 |
| 20260509044304 | 77 | 155 | 6.1 | 10.4 | 0.00 | 0.00 | 0.00 | 68 | 1015.6 |
| 20260509043804 | 77 | 105 | 8.7 | 13.0 | 0.00 | 0.00 | 0.00 | 67 | 1015.6 |
| 20260509043304 | 78 | 133 | 5.2 | 10.4 | 0.00 | 0.00 | 0.00 | 67 | 1015.6 |
| 20260509042805 | 78 | 167 | 10.4 | 14.8 | 0.00 | 0.00 | 0.00 | 67 | 1015.6 |
| 20260509042306 | 77 | 148 | 7.8 | 12.2 | 0.00 | 0.00 | 0.00 | 68 | 1015.6 |
| 20260509041304 | 77 | 158 | 8.7 | 13.0 | 0.00 | 0.00 | 0.00 | 69 | 1015.8 |
| 20260509040305 | 77 | 148 | 7.8 | 13.0 | 0.00 | 0.00 | 0.00 | 69 | 1016.0 |
| 20260509035806 | 77 | 149 | 6.1 | 13.9 | 0.00 | 0.00 | 0.00 | 69 | 1016.1 |
| 20260509035306 | 77 | 137 | 8.7 | 14.8 | 0.00 | 0.00 | 0.00 | 69 | 1016.1 |
| 20260509034804 | 76 | 156 | 7.0 | 14.8 | 0.00 | 0.00 | 0.00 | 70 | 1016.2 |
| 20260509034304 | 76 | 154 | 10.4 | 17.4 | 0.00 | 0.00 | 0.00 | 70 | 1016.2 |
| 20260509033804 | 76 | 128 | 8.7 | 13.9 | 0.00 | 0.00 | 0.00 | 70 | 1016.2 |
| 20260509033304 | 76 | 164 | 10.4 | 13.9 | 0.00 | 0.00 | 0.00 | 70 | 1016.3 |
| 20260509032805 | 76 | 146 | 8.7 | 12.2 | 0.00 | 0.00 | 0.00 | 70 | 1016.4 |
| 20260509032306 | 76 | 132 | 7.8 | 13.0 | 0.00 | 0.00 | 0.00 | 70 | 1016.4 |
| 20260509031804 | 76 | 145 | 7.0 | 12.2 | 0.00 | 0.00 | 0.00 | 70 | 1016.5 |
| 20260509030804 | 77 | 167 | 7.8 | 10.4 | 0.00 | 0.00 | 0.00 | 69 | 1016.4 |
| 20260509025306 | 77 | 142 | 7.0 | 12.2 | 0.00 | 0.00 | 0.00 | 68 | 1016.5 |
| 20260509024804 | 77 | 144 | 7.8 | 13.0 | 0.00 | 0.00 | 0.00 | 68 | 1016.6 |
| 20260509024304 | 78 | 137 | 7.8 | 10.4 | 0.00 | 0.00 | 0.00 | 68 | 1016.7 |
| 20260509023805 | 78 | 156 | 8.7 | 13.0 | 0.00 | 0.00 | 0.00 | 68 | 1016.8 |
| 20260509022804 | 78 | 157 | 7.8 | 12.2 | 0.00 | 0.00 | 0.00 | 70 | 1016.7 |
| 20260509022307 | 77 | 122 | 7.8 | 10.4 | 0.00 | 0.00 | 0.00 | 70 | 1016.8 |
| 20260509021804 | 77 | 127 | 7.8 | 12.2 | 0.00 | 0.00 | 0.00 | 70 | 1016.9 |
| 20260509021305 | 77 | 157 | 7.8 | 13.9 | 0.00 | 0.00 | 0.00 | 70 | 1017.0 |
| 20260509020804 | 77 | 148 | 8.7 | 13.9 | 0.00 | 0.00 | 0.00 | 71 | 1017.1 |
| 20260509015804 | 77 | 139 | 8.7 | 14.8 | 0.00 | 0.00 | 0.00 | 70 | 1017.2 |
| 20260509015306 | 77 | 155 | 9.6 | 14.8 | 0.00 | 0.00 | 0.00 | 72 | 1017.3 |
| 20260509014804 | 77 | 126 | 7.0 | 12.2 | 0.00 | 0.00 | 0.00 | 72 | 1017.2 |
| 20260509014304 | 76 | 148 | 8.7 | 13.9 | 0.00 | 0.00 | 0.00 | 72 | 1017.3 |
| 20260509013804 | 76 | 150 | 7.0 | 18.2 | 0.00 | 0.00 | 0.00 | 73 | 1017.4 |
| 20260509013304 | 75 | 139 | 10.4 | 15.6 | 0.00 | 0.00 | 0.00 | 73 | 1017.4 |
| 20260509012804 | 75 | 144 | 9.6 | 13.9 | 0.00 | 0.00 | 0.00 | 73 | 1017.6 |
| 20260509012307 | 75 | 150 | 8.7 | 14.8 | 0.00 | 0.00 | 0.00 | 74 | 1017.6 |
| 20260509011305 | 74 | 138 | 7.8 | 13.0 | 0.00 | 0.00 | 0.00 | 75 | 1017.7 |
| 20260509010804 | 74 | 127 | 7.8 | 17.4 | 0.00 | 0.00 | 0.00 | 74 | 1017.8 |
| 20260509010305 | 74 | 135 | 11.3 | 13.9 | 0.00 | 0.00 | 0.00 | 75 | 1017.8 |
| 20260509005804 | 74 | 155 | 10.4 | 10.4 | 0.00 | 0.00 | 0.00 | 73 | 1017.9 |
| 20260509005306 | 74 | 155 | 10.4 | 13.9 | 0.00 | 0.00 | 0.00 | 73 | 1017.9 |
| 20260509004804 | 75 | 152 | 9.6 | 15.6 | 0.00 | 0.00 | 0.00 | 73 | 1017.9 |
| 20260509004305 | 75 | 142 | 8.7 | 17.4 | 0.00 | 0.00 | 0.00 | 73 | 1017.9 |
| 20260509003804 | 75 | 150 | 8.7 | 17.4 | 0.00 | 0.00 | 0.00 | 72 | 1017.9 |
| 20260509003305 | 76 | 160 | 12.2 | 15.6 | 0.00 | 0.00 | 0.00 | 73 | 1017.9 |
| 20260509002804 | 75 | 147 | 8.7 | 17.4 | 0.00 | 0.00 | 0.00 | 73 | 1018.0 |
| 20260509001804 | 75 | 141 | 8.7 | 13.9 | 0.00 | 0.00 | 0.00 | 74 | 1017.9 |
| 20260509001304 | 75 | 159 | 13.0 | 18.2 | 0.00 | 0.00 | 0.00 | 74 | 1017.9 |
| 20260509000805 | 75 | 127 | 8.7 | 17.4 | 0.00 | 0.00 | 0.00 | 74 | 1017.9 |
| 20260509000304 | 74 | 118 | 8.7 | 12.2 | 0.00 | 0.00 | 0.00 | 74 | 1018.0 |
| 20260508235804 | 74 | 130 | 7.8 | 10.4 | 0.00 | 0.00 | 0.00 | 74 | 1018.0 |
| 20260508234804 | 74 | 2 | 0.0 | 7.0 | 0.00 | 0.00 | 0.00 | 75 | 1018.0 |
| 20260508234304 | 74 | 167 | 7.0 | 7.0 | 0.00 | 0.00 | 0.00 | 75 | 1017.9 |
| 20260508233805 | 74 | 167 | 7.0 | 11.3 | 0.00 | 0.00 | 0.00 | 75 | 1017.9 |
| 20260508233304 | 74 | 163 | 7.8 | 13.0 | 0.00 | 0.00 | 0.00 | 76 | 1017.9 |
| 20260508232307 | 73 | 115 | 9.6 | 15.6 | 0.00 | 0.00 | 0.00 | 75 | 1018.0 |
| 20260508231804 | 73 | 150 | 9.6 | 13.9 | 0.00 | 0.00 | 0.00 | 75 | 1018.0 |
| 20260508231304 | 73 | 129 | 2.6 | 13.0 | 0.00 | 0.00 | 0.00 | 74 | 1018.0 |
| 20260508230818 | 75 | 119 | 6.1 | 6.1 | 0.00 | 0.00 | 0.00 | 73 | 1018.0 |
| 20260508225805 | 75 | 146 | 10.4 | 12.2 | 0.00 | 0.00 | 0.00 | 73 | 1017.8 |
| 20260508225307 | 75 | 144 | 7.0 | 17.4 | 0.00 | 0.00 | 0.00 | 73 | 1017.8 |
| 20260508224804 | 75 | 156 | 8.7 | 14.8 | 0.00 | 0.00 | 0.00 | 74 | 1017.8 |
| 20260508224304 | 75 | 146 | 7.8 | 12.2 | 0.00 | 0.00 | 0.00 | 74 | 1017.8 |
| 20260508223805 | 75 | 149 | 7.8 | 13.9 | 0.00 | 0.00 | 0.00 | 74 | 1017.6 |
| 20260508223304 | 74 | 106 | 7.0 | 13.9 | 0.00 | 0.00 | 0.00 | 74 | 1017.6 |
| 20260508222804 | 74 | 130 | 7.0 | 13.0 | 0.00 | 0.00 | 0.00 | 74 | 1017.5 |
| 20260508222306 | 74 | 130 | 5.2 | 10.4 | 0.00 | 0.00 | 0.00 | 75 | 1017.5 |
| 20260508221804 | 73 | 114 | 6.1 | 11.3 | 0.00 | 0.00 | 0.00 | 76 | 1017.4 |
| 20260508221304 | 72 | 140 | 4.3 | 8.7 | 0.00 | 0.00 | 0.00 | 76 | 1017.3 |
| 20260508220804 | 72 | 129 | 6.1 | 12.2 | 0.00 | 0.00 | 0.00 | 77 | 1017.3 |
| 20260508220305 | 72 | 111 | 8.7 | 13.0 | 0.00 | 0.00 | 0.00 | 77 | 1017.3 |
| 20260508215805 | 71 | 116 | 7.0 | 7.8 | 0.00 | 0.00 | 0.00 | 78 | 1017.3 |
| 20260508215306 | 71 | 113 | 7.8 | 10.4 | 0.00 | 0.00 | 0.00 | 78 | 1017.3 |
| 20260508214804 | 71 | 103 | 10.4 | 10.4 | 0.00 | 0.00 | 0.00 | 81 | 1017.3 |
| 20260508214304 | 71 | 103 | 10.4 | 10.4 | 0.00 | 0.00 | 0.00 | 81 | 1017.1 |
| 20260508213305 | 69 | 3 | 0.0 | 0.0 | 0.00 | 0.00 | 0.00 | 81 | 1017.0 |